Regional Weather Roundup
Issued by NWS

Home | Current Version | Previous Version | Text Only | Print | Product List | Glossary Off
Versions: 1 2 3 4 5 6 7 8 9 10 11 12 13 14 15 16 17 18 19 20 21 22 23 24 25 26 27 28 29 30 31 32 33 34 35 36 37 38 39 40 41 42 43 44 45 46 47 48 49 50

000
ASUS43 KMPX 291701
RWRMN
WEATHER ROUNDUP FOR MINNESOTA
NATIONAL WEATHER SERVICE TWIN CITIES/CHANHASSEN MN
1200 PM CDT SUN MAY 29 2016


NOTE: "FAIR" INDICATES FEW OR NO CLOUDS BELOW 12,000 FEET WITH NO
SIGNIFICANT WEATHER AND/OR OBSTRUCTIONS TO VISIBILITY. N/A MEANS
CURRENT SKY AND/OR WEATHER CONDITIONS ARE NOT AVAILABLE.

MNZ060>063-068>070-291800-
   Twin Cities Metro

CITY           SKY/WX    TMP DP  RH WIND       PRES   REMARKS
TWIN CITIES    PTSUNNY   73  57  57 NW12G23   29.95R
ST PAUL        PTSUNNY   71  58  63 NW16G24   29.95R
CRYSTAL        PTSUNNY   72  55  55 W18G26    29.94R
BLAINE         MOSUNNY   73  59  60 NW15      29.94S
EDEN PRAIRIE   MOSUNNY   74  56  53 W14G21    29.95R
SOUTH ST PAUL  MOSUNNY   71  56  59 W14G21    29.95S
LAKE ELMO      PTSUNNY   70  61  73 W13G20    29.96R
$$
MNZ001>005-007-008-013>017-022>024-027-028-291800-
   Northwest Minnesota

CITY           SKY/WX    TMP DP  RH WIND       PRES   REMARKS
BEMIDJI        CLOUDY    60  55  82 NW10G17   29.93R
HALLOCK        PTSUNNY   63  57  82 NW10      29.92S
ROSEAU         MOSUNNY   61  55  82 NW10G16   29.90S
WARROAD        CLOUDY    59  55  88 W10       29.90R
THIEF RVR FALL CLOUDY    63  54  72 NW12      29.94S
CROOKSTON      CLOUDY    63  55  77 NW9       29.95S
FOSSTON        CLOUDY    61  55  82 NW8       29.95S
DETROIT LAKES  CLOUDY    64  55  72 NW12      29.98R
MOORHEAD       MOSUNNY   66  59  77 N8        29.97S
PARK RAPIDS    CLOUDY    64  55  72 NW16      29.94R
MAHNOMEN       CLOUDY    62  56  81 NW12      29.95S
$$
MNZ006-009>011-018-025>026-291800-
   North Central Minnesota

CITY           SKY/WX    TMP DP  RH WIND       PRES   REMARKS
BAUDETTE       CLOUDY    58  54  86 NW12      29.88R
FLAG ISLAND    CLOUDY    55  52  88 NW14      29.87R
INTL FALLS     CLOUDY    58  54  86 NW9       29.85R
WASKISH        CLOUDY    61  55  82 W8        29.90R
BIG FORK       PTSUNNY   61  55  82 W6        29.88R
LONGVILLE      CLOUDY    64  57  77 W7        29.92R
GRAND RAPIDS   CLOUDY    61  55  81 SW13G18   29.90R
CRANE LAKE     CLOUDY    57  55  94 NW3       29.84R
ORR            CLOUDY    57  54  88 NW8       29.82S
COOK           LGT RAIN  57  55  94 W9G17     29.85R
WALKER         CLOUDY    62  54  75 NW14G20   29.92R
$$
MNZ012-019>021-037-291800-
   Northeast Minnesota

CITY           SKY/WX    TMP DP  RH WIND       PRES   REMARKS
DULUTH         PTSUNNY   63  55  75 W17       29.85R
ELY            CLOUDY    59  55  88 W15       29.81S
HIBBING        CLOUDY    59  54  83 NW12G18   29.85S
EVELETH        CLOUDY    63  54  72 W13G21    29.86
DULUTH HARBOR  CLOUDY    64  57  77 W16G25    29.85R
TWO HARBORS      N/A     68  61  77 W6G16     29.80S
SILVER BAY     CLOUDY    64  59  82 W5          N/A
GRAND MARAIS     N/A     42  42 100 SW5       29.76F
G MARAIS ARPRT LGT RAIN  59  55  88 SW3       29.78S
$$
MNZ029>031-032-039>041-046>048-054>057-064-291800-
   West Central Minnesota

CITY           SKY/WX    TMP DP  RH WIND       PRES   REMARKS
FERGUS FALLS   MOSUNNY   70  57  64 N15       29.94S
WHEATON        MOSUNNY   73  59  60 W14       29.99S
MORRIS         MOSUNNY   72  61  68 W9        29.97S
ALEXANDRIA     PTSUNNY   68  56  65 W13G22    29.98S
ELBOW LAKE     PTSUNNY   69  58  65 NW12      29.98S
WADENA         PTSUNNY   64  57  77 W12G17    29.95S
GLENWOOD       MOSUNNY   70  57  64 W15       29.99R
APPLETON       MOSUNNY   73  55  53 NW10      29.98S
ORTONVILLE     SUNNY     73  55  53 NW6       29.98S
MADISON        SUNNY     73  55  53 NW12      29.99S
WILLMAR        PTSUNNY   70  61  73 NW10      30.01R
$$
MNZ033>034-036-042>043-049>051-058-059-291800-
   Central Minnesota

CITY           SKY/WX    TMP DP  RH WIND       PRES   REMARKS
ST CLOUD       PTSUNNY   70  58  65 NW13      29.95S
SAUK CENTRE    PTSUNNY   68  57  67 W12G18    29.97S
PAYNESVILLE    PTSUNNY   70  58  65 W15       29.98R
AITKIN         CLOUDY    68  54  60 W7        29.90S
PINE RIVER     CLOUDY    64  57  77 W8        29.96R
BRAINERD       CLOUDY    64  56  75 W8        29.94S
STAPLES        CLOUDY    63  55  77 W10G17    29.96R
LONG PRAIRIE   PTSUNNY   68  55  64 W14G22    29.97S
LITTLE FALLS   CLOUDY    64  54  68 W15       29.96R
LITCHFIELD     MOSUNNY   72  63  73 NW8       29.98S
BUFFALO        PTSUNNY   69  56  61 W13G18    29.98R
MAPLE LAKE     MOSUNNY   70  60  71 W9        29.98R
HUTCHINSON     MOSUNNY   71  62  73 W13       29.99S
$$
MNZ037-044-045-052-053-291800-
   East Central Minnesota

CITY           SKY/WX    TMP DP  RH WIND       PRES   REMARKS
PRINCETON      PTSUNNY   72  57  60 W10       29.95R
MORA           CLOUDY    66  54  63 W12G18    29.94S
CAMBRIDGE      CLOUDY    70  55  60 W14G20    29.92S
RUSH CITY      PTSUNNY   68  57  67 NW12G17   29.93R
MOOSE LAKE     CLOUDY    64  55  72 W12G17    29.87S
HINCKLEY       CLOUDY    66  57  72 W8        29.91S
CLOQUET        CLOUDY    63  55  77 W15       29.87R
MCGREGOR       CLOUDY    64  55  72 W7G17     29.90S
$$
MNZ071>073-080-081-089-090-097-098-291800-
   Southwest Minnesota

CITY           SKY/WX    TMP DP  RH WIND       PRES   REMARKS
MONTEVIDEO     MOSUNNY   75  61  60 NW9       30.01R
GRANITE FALLS  MOSUNNY   76  60  56 W10G23    30.01S
CANBY          MOSUNNY   75  59  57 NW15G21   30.02R
MARSHALL       SUNNY     73  56  54 W17       30.01R
REDWOOD FALLS  MOSUNNY   74  59  59 W6G18     29.99S
OLIVIA         PTSUNNY   73  63  68 NW8G17    29.99R
PIPESTONE      SUNNY     72  55  56 W13G20    30.05S
WINDOM         MOSUNNY   72  55  56 W9        30.03R
WORTHINGTON    MOSUNNY   71  59  65 W16       30.05S
JACKSON        MOSUNNY   73  55  53 W16G22    30.04S
TRACY          CLOUDY    74  59  61 W12G18    30.02S
SLAYTON        CLOUDY    71  55  56 W15       30.05R
$$
MNZ065>067-074>077-082>085-091>093-291800-
   South Central Minnesota

CITY           SKY/WX    TMP DP  RH WIND       PRES   REMARKS
MANKATO        MOSUNNY   72  57  60 W10G18    30.00R
NEW ULM        MOSUNNY   72  61  68 W14       30.00R
ST JAMES       MOSUNNY   70  55  60 W14       30.02R
FAIRMONT       MOSUNNY   73  55  53 W14G20    30.02S
GLENCOE        MOSUNNY   72  63  73 W10G18    29.98R
FARIBAULT      MOSUNNY   72  63  73 W12       29.99R
OWATONNA       MOSUNNY   72  61  68 W17       30.00R
WASECA         MOSUNNY   72  61  68 W16       30.02R
ALBERT LEA     MOSUNNY   72  61  68 W12       30.01S
$$
MNZ078>079-086>088-094>096-291800-
   Southeast Minnesota

CITY           SKY/WX    TMP DP  RH WIND       PRES   REMARKS
ROCHESTER      PTSUNNY   71  62  73 W18G26    30.00R
RED WING       PTSUNNY   73  59  60 W17       29.94R
STANTON        PTSUNNY   72  60  65 W15G23    29.96S
DODGE CENTER   MOSUNNY   72  59  64 W15G24    30.00R
WINONA         MOSUNNY   73  59  60 NW13G18   29.96R
AUSTIN         MOSUNNY   72  59  64 W14G20    30.01S
PRESTON        MOSUNNY   71  58  64 W17G23    30.01S
$$
ABBREVIATIONS USED IN REMARKS
   TC - TEMPERATURES IN CELSIUS
  WCI - WIND CHILL INDEX
   HX - HEAT INDEX
  VSB - VISIBILITY
$$




USA.gov is the U.S. government's official web portal to all federal, state and local government web resources and services.